This is the latest recevied weather packets stored in our database for station/object K4OAM-13. If no packets are shown the sender has not sent any weather packets the latest 10 day(s).
| Time | Temp. | Humidity | Pressure | Rain* | Wind** | Luminosity | Snow |
|---|---|---|---|---|---|---|---|
| 1777916757 | 9.44° C | 72% | 1007.4 hPa | - | - | - | - |
| 1777916157 | 9.44° C | 72% | 1007.5 hPa | - | - | - | - |
| 1777915556 | 9.44° C | 71% | 1007.8 hPa | - | - | - | - |
| 1777914956 | 9.44° C | 72% | 1007.6 hPa | - | - | - | - |
| 1777914361 | 9.44° C | 72% | 1008 hPa | - | - | - | - |
| 1777913756 | 9.44° C | 72% | 1008.2 hPa | - | - | - | - |
| 1777913157 | 9.44° C | 74% | 1008.3 hPa | - | - | - | - |
| 1777912557 | 8.89° C | 77% | 1008.3 hPa | - | - | - | - |
| 1777911957 | 8.89° C | 75% | 1008.6 hPa | - | - | - | - |
| 1777911360 | 9.44° C | 75% | 1008.5 hPa | - | - | - | - |
| 1777910757 | 9.44° C | 74% | 1008.5 hPa | - | - | - | - |
| 1777910157 | 9.44° C | 73% | 1008.6 hPa | - | - | - | - |
| 1777909557 | 9.44° C | 73% | 1008.5 hPa | - | - | - | - |
| 1777908957 | 8.89° C | 75% | 1008.5 hPa | - | - | - | - |
| 1777908357 | 8.89° C | 77% | 1008.6 hPa | - | - | - | - |
| 1777907757 | 9.44° C | 76% | 1008.6 hPa | - | - | - | - |
| 1777907157 | 10° C | 73% | 1008.5 hPa | - | - | - | - |
| 1777906557 | 10° C | 73% | 1008.7 hPa | - | - | - | - |
| 1777905956 | 10° C | 71% | 1008.9 hPa | - | - | - | - |
| 1777905357 | 9.44° C | 74% | 1009.2 hPa | - | - | - | - |
| 1777904757 | 9.44° C | 71% | 1009 hPa | - | - | - | - |
| 1777904157 | 9.44° C | 72% | 1009.2 hPa | - | - | - | - |
| 1777903557 | 9.44° C | 71% | 1009.3 hPa | - | - | - | - |
| 1777902957 | 9.44° C | 72% | 1009.4 hPa | - | - | - | - |
| 1777902357 | 9.44° C | 72% | 1009.3 hPa | - | - | - | - |
* Rain since midnight (hover to see other rain measurements)
** Current wind speed in m/s (hover to see current wind gust speed)